12/05/22,  11:00a,   ---,   ---,   ---,  ---,   ---, SW ,  9.0, SW , 20.0, 29.790, 0.00
12/05/22,  11:01a,   ---,   ---,   ---,  ---,   ---, SW , 10.0, SW , 20.0, 29.788, 0.00
12/05/22,  11:02a,   ---,   ---,   ---,  ---,   ---, SW ,  9.0, SSW, 13.0, 29.787, 0.00
12/05/22,  11:03a,   ---,   ---,   ---,  ---,   ---, SSW,  7.0, SSW, 12.0, 29.788, 0.00
12/05/22,  11:04a,   ---,   ---,   ---,  ---,   ---, SW ,  7.0, SW , 10.0, 29.788, 0.00
12/05/22,  11:05a,   ---,   ---,   ---,  ---,   ---, SW ,  7.0, SW , 11.0, 29.786, 0.00
12/05/22,  11:06a,   ---,   ---,   ---,  ---,   ---, SW ,  7.0, SW , 12.0, 29.787, 0.00
12/05/22,  11:07a,   ---,   ---,   ---,  ---,   ---, SW ,  5.0, S  , 11.0, 29.785, 0.00
12/05/22,  11:08a,   ---,   ---,   ---,  ---,   ---, WSW,  4.0, SSW,  9.0, 29.786, 0.00
12/05/22,  11:09a,   ---,   ---,   ---,  ---,   ---, SSW,  6.0, WSW, 13.0, 29.785, 0.00
12/05/22,  11:10a,   ---,   ---,   ---,  ---,   ---, SW ,  5.0, SSW, 12.0, 29.785, 0.00
12/05/22,  11:11a,   ---,   ---,   ---,  ---,   ---, WSW,  9.0, WSW, 16.0, 29.785, 0.00
12/05/22,  11:12a,   ---,   ---,   ---,  ---,   ---, SW ,  6.0, SSW, 10.0, 29.784, 0.00
12/05/22,  11:13a,   ---,   ---,   ---,  ---,   ---, S  ,  7.0, S  , 10.0, 29.784, 0.00
12/05/22,  11:14a,   ---,   ---,   ---,  ---,   ---, SW ,  5.0, SW ,  9.0, 29.782, 0.00
12/05/22,  11:15a,   ---,   ---,   ---,  ---,   ---, SSW,  6.0, SW , 12.0, 29.784, 0.00
12/05/22,  11:16a,   ---,   ---,   ---,  ---,   ---, SSW,  7.0, SSE, 17.0, 29.783, 0.00
12/05/22,  11:17a,   ---,   ---,   ---,  ---,   ---, SW ,  7.0, SSW, 11.0, 29.782, 0.00
12/05/22,  11:18a,   ---,   ---,   ---,  ---,   ---, WSW, 10.0, WSW, 15.0, 29.783, 0.00
12/05/22,  11:19a,   ---,   ---,   ---,  ---,   ---, WSW,  6.0, WSW, 11.0, 29.782, 0.00
12/05/22,  11:20a,   ---,   ---,   ---,  ---,   ---, WSW,  4.0, WSW, 11.0, 29.782, 0.00
12/05/22,  11:21a,   ---,   ---,   ---,  ---,   ---, SW ,  6.0, SW , 15.0, 29.780, 0.00
12/05/22,  11:22a,   ---,   ---,   ---,  ---,   ---, SW ,  8.0, WSW, 13.0, 29.780, 0.00
12/05/22,  11:23a,   ---,   ---,   ---,  ---,   ---, SW ,  7.0, WNW, 12.0, 29.777, 0.00
12/05/22,  11:24a,   ---,   ---,   ---,  ---,   ---, WSW,  6.0, SW , 16.0, 29.775, 0.00
12/05/22,  11:25a,   ---,   ---,   ---,  ---,   ---, WSW,  7.0, WSW, 13.0, 29.778, 0.00
12/05/22,  11:26a,   ---,   ---,   ---,  ---,   ---, SW ,  7.0, SW , 11.0, 29.779, 0.00
12/05/22,  11:27a,   ---,   ---,   ---,  ---,   ---, W  , 10.0, WSW, 16.0, 29.779, 0.00
12/05/22,  11:28a,   ---,   ---,   ---,  ---,   ---, SW ,  7.0, S  , 14.0, 29.779, 0.00
12/05/22,  11:29a,   ---,   ---,   ---,  ---,   ---, SW ,  7.0, W  , 12.0, 29.778, 0.00
12/05/22,  11:30a,   ---,   ---,   ---,  ---,   ---, SW ,  9.0, WSW, 16.0, 29.777, 0.00
12/05/22,  11:31a,   ---,   ---,   ---,  ---,   ---, SW ,  9.0, W  , 13.0, 29.775, 0.00
12/05/22,  11:32a,   ---,   ---,   ---,  ---,   ---, SW , 13.0, SW , 18.0, 29.776, 0.00
12/05/22,  11:33a,   ---,   ---,   ---,  ---,   ---, SSW,  8.0, SSW, 11.0, 29.776, 0.00
12/05/22,  11:34a,   ---,   ---,   ---,  ---,   ---, SSW,  8.0, SSE, 16.0, 29.777, 0.00
12/05/22,  11:35a,   ---,   ---,   ---,  ---,   ---, SSW, 11.0, SW , 19.0, 29.775, 0.00
12/05/22,  11:36a,   ---,   ---,   ---,  ---,   ---, SSW,  8.0, SSW, 12.0, 29.775, 0.00
12/05/22,  11:37a,   ---,   ---,   ---,  ---,   ---, WSW,  9.0, W  , 13.0, 29.776, 0.00
12/05/22,  11:38a,   ---,   ---,   ---,  ---,   ---, WSW, 10.0, WSW, 17.0, 29.776, 0.00
12/05/22,  11:39a,   ---,   ---,   ---,  ---,   ---, SW ,  8.0, SSW, 15.0, 29.773, 0.00
12/05/22,  11:40a,   ---,   ---,   ---,  ---,   ---, SSW,  9.0, SSW, 17.0, 29.773, 0.00
12/05/22,  11:41a,   ---,   ---,   ---,  ---,   ---, WSW, 10.0, WSW, 15.0, 29.775, 0.00
12/05/22,  11:42a,   ---,   ---,   ---,  ---,   ---, SW ,  7.0, WSW, 15.0, 29.773, 0.00
12/05/22,  11:43a,   ---,   ---,   ---,  ---,   ---, SSW, 10.0, SW , 18.0, 29.776, 0.00
12/05/22,  11:44a,   ---,   ---,   ---,  ---,   ---, SW ,  8.0, W  , 17.0, 29.772, 0.00
12/05/22,  11:45a,   ---,   ---,   ---,  ---,   ---, SW ,  9.0, SW , 12.0, 29.772, 0.00
12/05/22,  11:46a,   ---,   ---,   ---,  ---,   ---, WSW,  7.0, WSW, 10.0, 29.771, 0.00
12/05/22,  11:47a,   ---,   ---,   ---,  ---,   ---, WSW,  6.0, SSW, 11.0, 29.770, 0.00
12/05/22,  11:48a,   ---,   ---,   ---,  ---,   ---, SW ,  8.0, SW , 14.0, 29.768, 0.00
12/05/22,  11:49a,   ---,   ---,   ---,  ---,   ---, SW ,  7.0, W  , 15.0, 29.767, 0.00
12/05/22,  11:50a,   ---,   ---,   ---,  ---,   ---, SW ,  6.0, SW , 12.0, 29.766, 0.00
12/05/22,  11:51a,   ---,   ---,   ---,  ---,   ---, SW ,  9.0, SW , 14.0, 29.765, 0.00
12/05/22,  11:52a,   ---,   ---,   ---,  ---,   ---, SSW,  9.0, WSW, 14.0, 29.762, 0.00
12/05/22,  11:53a,   ---,   ---,   ---,  ---,   ---, SW ,  9.0, SSW, 13.0, 29.762, 0.00
12/05/22,  11:54a,   ---,   ---,   ---,  ---,   ---, SSW, 10.0, SW , 17.0, 29.763, 0.00
12/05/22,  11:55a,   ---,   ---,   ---,  ---,   ---, SW ,  6.0, SW , 17.0, 29.762, 0.00
12/05/22,  11:56a,   ---,   ---,   ---,  ---,   ---, WSW,  5.0, WSW,  8.0, 29.761, 0.00
12/05/22,  11:57a,   ---,   ---,   ---,  ---,   ---, SSW, 10.0, WSW, 18.0, 29.760, 0.00
12/05/22,  11:58a,   ---,   ---,   ---,  ---,   ---, SSW, 10.0, SSW, 16.0, 29.759, 0.00
12/05/22,  11:59a,   ---,   ---,   ---,  ---,   ---, SW , 10.0, SW , 17.0, 29.755, 0.00
12/05/22,  12:00p,   ---,   ---,   ---,  ---,   ---, SSW, 10.0, WSW, 16.0, 29.755, 0.00
12/05/22,  12:01p,   ---,   ---,   ---,  ---,   ---, SW , 11.0, SW , 17.0, 29.756, 0.00
12/05/22,  12:02p,   ---,   ---,   ---,  ---,   ---, SSW, 10.0, SW , 18.0, 29.756, 0.00
12/05/22,  12:03p,   ---,   ---,   ---,  ---,   ---, SW ,  7.0, WSW, 11.0, 29.756, 0.00
12/05/22,  12:04p,   ---,   ---,   ---,  ---,   ---, SW ,  8.0, SW , 12.0, 29.758, 0.00
12/05/22,  12:05p,   ---,   ---,   ---,  ---,   ---, SW ,  6.0, SW , 11.0, 29.758, 0.00
12/05/22,  12:06p,   ---,   ---,   ---,  ---,   ---, SSW,  9.0, WSW, 16.0, 29.757, 0.00
12/05/22,  12:07p,   ---,   ---,   ---,  ---,   ---, S  ,  9.0, SW , 18.0, 29.757, 0.00
12/05/22,  12:08p,   ---,   ---,   ---,  ---,   ---, SSW,  8.0, SW , 11.0, 29.758, 0.00
12/05/22,  12:09p,   ---,   ---,   ---,  ---,   ---, SW ,  6.0, SW , 11.0, 29.758, 0.00
12/05/22,  12:10p,   ---,   ---,   ---,  ---,   ---, SW ,  6.0, WSW, 14.0, 29.758, 0.00
12/05/22,  12:11p,   ---,   ---,   ---,  ---,   ---, SW ,  5.0, WSW, 10.0, 29.758, 0.00
12/05/22,  12:12p,   ---,   ---,   ---,  ---,   ---, SSW,  4.0, SW ,  8.0, 29.754, 0.00
12/05/22,  12:13p,   ---,   ---,   ---,  ---,   ---, SW ,  6.0, SW , 12.0, 29.755, 0.00
12/05/22,  12:14p,   ---,   ---,   ---,  ---,   ---, WSW,  6.0, W  , 10.0, 29.755, 0.00
12/05/22,  12:15p,   ---,   ---,   ---,  ---,   ---, W  ,  8.0, SW , 11.0, 29.756, 0.00
12/05/22,  12:16p,   ---,   ---,   ---,  ---,   ---, SW ,  7.0, SW , 11.0, 29.755, 0.00
12/05/22,  12:17p,   ---,   ---,   ---,  ---,   ---, WSW,  6.0, WSW, 11.0, 29.758, 0.00
12/05/22,  12:18p,   ---,   ---,   ---,  ---,   ---, WSW,  7.0, SSW, 16.0, 29.756, 0.00
12/05/22,  12:19p,   ---,   ---,   ---,  ---,   ---, SW ,  6.0, W  , 15.0, 29.756, 0.00
12/05/22,  12:20p,   ---,   ---,   ---,  ---,   ---, SW ,  6.0, SW , 11.0, 29.756, 0.00
12/05/22,  12:21p,   ---,   ---,   ---,  ---,   ---, SW ,  4.0, W  ,  9.0, 29.757, 0.00
12/05/22,  12:22p,   ---,   ---,   ---,  ---,   ---, SW ,  5.0, SW ,  8.0, 29.755, 0.00
12/05/22,  12:23p,   ---,   ---,   ---,  ---,   ---, SSW,  6.0, S  ,  9.0, 29.754, 0.00
12/05/22,  12:24p,   ---,   ---,   ---,  ---,   ---, SW ,  7.0, W  , 14.0, 29.754, 0.00
12/05/22,  12:25p,   ---,   ---,   ---,  ---,   ---, WSW,  7.0, W  , 12.0, 29.753, 0.00
12/05/22,  12:26p,   ---,   ---,   ---,  ---,   ---, SW ,  6.0, WSW, 11.0, 29.751, 0.00
12/05/22,  12:27p,   ---,   ---,   ---,  ---,   ---, SW ,  5.0, WSW, 10.0, 29.750, 0.00
12/05/22,  12:28p,   ---,   ---,   ---,  ---,   ---, SW ,  4.0, SSW, 13.0, 29.750, 0.00
12/05/22,  12:29p,   ---,   ---,   ---,  ---,   ---, SW ,  4.0, WSW, 14.0, 29.749, 0.00
12/05/22,  12:30p,   ---,   ---,   ---,  ---,   ---, SW ,  7.0, SW , 12.0, 29.748, 0.00
12/05/22,  12:31p,   ---,   ---,   ---,  ---,   ---, SW ,  5.0, SW ,  8.0, 29.745, 0.00
12/05/22,  12:32p,   ---,   ---,   ---,  ---,   ---, SSW,  8.0, WSW, 15.0, 29.743, 0.00
12/05/22,  12:33p,   ---,   ---,   ---,  ---,   ---, SW ,  5.0, SSW, 10.0, 29.739, 0.00
12/05/22,  12:34p,   ---,   ---,   ---,  ---,   ---, WSW,  3.0, SW , 12.0, 29.738, 0.00
12/05/22,  12:35p,   ---,   ---,   ---,  ---,   ---, SW ,  7.0, SW , 14.0, 29.739, 0.00
12/05/22,  12:36p,   ---,   ---,   ---,  ---,   ---, SW ,  6.0, SW , 10.0, 29.742, 0.00
12/05/22,  12:37p,   ---,   ---,   ---,  ---,   ---, SW ,  6.0, SW , 10.0, 29.744, 0.00
12/05/22,  12:38p,   ---,   ---,   ---,  ---,   ---, SW ,  8.0, SW , 13.0, 29.744, 0.00
12/05/22,  12:39p,   ---,   ---,   ---,  ---,   ---, SW ,  8.0, SW , 14.0, 29.744, 0.00
12/05/22,  12:40p,   ---,   ---,   ---,  ---,   ---, SW ,  8.0, WSW, 15.0, 29.745, 0.00
12/05/22,  12:41p,   ---,   ---,   ---,  ---,   ---, WSW,  6.0, WSW, 11.0, 29.745, 0.00
12/05/22,  12:42p,   ---,   ---,   ---,  ---,   ---, SW ,  4.0, SW , 14.0, 29.744, 0.00
12/05/22,  12:43p,   ---,   ---,   ---,  ---,   ---, WSW,  8.0, WSW, 10.0, 29.744, 0.00
12/05/22,  12:44p,   ---,   ---,   ---,  ---,   ---, W  ,  6.0, SSW, 10.0, 29.742, 0.00
12/05/22,  12:45p,   ---,   ---,   ---,  ---,   ---, WSW,  5.0, WSW, 11.0, 29.742, 0.00
12/05/22,  12:46p,   ---,   ---,   ---,  ---,   ---, W  ,  4.0, WSW, 10.0, 29.741, 0.00
12/05/22,  12:47p,   ---,   ---,   ---,  ---,   ---, SW ,  4.0, WSW,  9.0, 29.739, 0.00
12/05/22,  12:48p,   ---,   ---,   ---,  ---,   ---, WSW,  7.0, SW , 14.0, 29.739, 0.00
12/05/22,  12:49p,   ---,   ---,   ---,  ---,   ---, WSW,  9.0, WSW, 13.0, 29.741, 0.00
12/05/22,  12:50p,   ---,   ---,   ---,  ---,   ---, WSW,  6.0, WSW, 11.0, 29.740, 0.00
12/05/22,  12:51p,   ---,   ---,   ---,  ---,   ---, SW ,  5.0, WSW,  9.0, 29.738, 0.00
12/05/22,  12:52p,   ---,   ---,   ---,  ---,   ---, SSW,  7.0, SSW, 13.0, 29.738, 0.00
12/05/22,  12:53p,   ---,   ---,   ---,  ---,   ---, SW , 10.0, SW , 19.0, 29.738, 0.00
12/05/22,  12:54p,   ---,   ---,   ---,  ---,   ---, WSW,  7.0, WSW, 10.0, 29.736, 0.00
12/05/22,  12:55p,   ---,   ---,   ---,  ---,   ---, SW ,  7.0, WSW, 15.0, 29.734, 0.00
12/05/22,  12:56p,   ---,   ---,   ---,  ---,   ---, SW ,  8.0, SW , 16.0, 29.735, 0.00
12/05/22,  12:57p,   ---,   ---,   ---,  ---,   ---, SSW, 11.0, S  , 15.0, 29.733, 0.00
12/05/22,  12:58p,   ---,   ---,   ---,  ---,   ---, SW , 11.0, SW , 20.0, 29.733, 0.00
12/05/22,  12:59p,   ---,   ---,   ---,  ---,   ---, SSW,  8.0, SSW, 15.0, 29.727, 0.00
12/05/22,   1:00p,   ---,   ---,   ---,  ---,   ---, SSW,  8.0, SW , 16.0, 29.728, 0.00
12/05/22,   1:01p,   ---,   ---,   ---,  ---,   ---, SW ,  8.0, SW , 17.0, 29.727, 0.00
12/05/22,   1:02p,   ---,   ---,   ---,  ---,   ---, SSW, 10.0, WSW, 14.0, 29.725, 0.00
12/05/22,   1:03p,   ---,   ---,   ---,  ---,   ---, SW , 10.0, SW , 17.0, 29.724, 0.00
12/05/22,   1:04p,   ---,   ---,   ---,  ---,   ---, SW ,  6.0, SW ,  9.0, 29.725, 0.00
12/05/22,   1:05p,   ---,   ---,   ---,  ---,   ---, SSW,  7.0, SW , 13.0, 29.725, 0.00
12/05/22,   1:06p,   ---,   ---,   ---,  ---,   ---, SW ,  8.0, SW , 10.0, 29.725, 0.00
12/05/22,   1:07p,   ---,   ---,   ---,  ---,   ---, SW ,  6.0, SSW, 10.0, 29.723, 0.00
12/05/22,   1:08p,   ---,   ---,   ---,  ---,   ---, WSW,  8.0, WSW, 12.0, 29.723, 0.00
12/05/22,   1:09p,   ---,   ---,   ---,  ---,   ---, WSW, 10.0, W  , 14.0, 29.722, 0.00
12/05/22,   1:10p,   ---,   ---,   ---,  ---,   ---, SW ,  6.0, SW , 10.0, 29.723, 0.00
12/05/22,   1:11p,   ---,   ---,   ---,  ---,   ---, SSW,  5.0, W  ,  9.0, 29.722, 0.00
12/05/22,   1:12p,   ---,   ---,   ---,  ---,   ---, SSW,  6.0, WSW, 10.0, 29.722, 0.00
12/05/22,   1:13p,   ---,   ---,   ---,  ---,   ---, WSW,  8.0, SW , 14.0, 29.720, 0.00
12/05/22,   1:14p,   ---,   ---,   ---,  ---,   ---, SW ,  8.0, S  , 13.0, 29.721, 0.00
12/05/22,   1:15p,   ---,   ---,   ---,  ---,   ---, SSW,  9.0, S  , 14.0, 29.720, 0.00
12/05/22,   1:16p,   ---,   ---,   ---,  ---,   ---, SW ,  8.0, SW , 11.0, 29.719, 0.00
12/05/22,   1:17p,   ---,   ---,   ---,  ---,   ---, SSW, 10.0, SW , 14.0, 29.719, 0.00
12/05/22,   1:18p,   ---,   ---,   ---,  ---,   ---, SSW,  9.0, SSW, 13.0, 29.717, 0.00
12/05/22,   1:19p,   ---,   ---,   ---,  ---,   ---, SW ,  6.0, SSW, 10.0, 29.716, 0.00
12/05/22,   1:20p,   ---,   ---,   ---,  ---,   ---, SW ,  8.0, WSW, 17.0, 29.716, 0.00
12/05/22,   1:21p,   ---,   ---,   ---,  ---,   ---, SW ,  8.0, SW , 15.0, 29.716, 0.00
12/05/22,   1:22p,   ---,   ---,   ---,  ---,   ---, WSW,  9.0, WSW, 13.0, 29.715, 0.00
12/05/22,   1:23p,   ---,   ---,   ---,  ---,   ---, WSW,  8.0, W  , 13.0, 29.714, 0.00
12/05/22,   1:24p,   ---,   ---,   ---,  ---,   ---, SW ,  5.0, SW ,  9.0, 29.713, 0.00
12/05/22,   1:25p,   ---,   ---,   ---,  ---,   ---, SW ,  5.0, SW ,  9.0, 29.711, 0.00
12/05/22,   1:26p,   ---,   ---,   ---,  ---,   ---, SW ,  7.0, WSW, 13.0, 29.711, 0.00
12/05/22,   1:27p,   ---,   ---,   ---,  ---,   ---, SW ,  7.0, SW , 14.0, 29.711, 0.00
12/05/22,   1:28p,   ---,   ---,   ---,  ---,   ---, SW ,  8.0, W  , 14.0, 29.713, 0.00
12/05/22,   1:29p,   ---,   ---,   ---,  ---,   ---, SW ,  6.0, W  ,  9.0, 29.713, 0.00
12/05/22,   1:30p,   ---,   ---,   ---,  ---,   ---, SW ,  9.0, WSW, 13.0, 29.713, 0.00
12/05/22,   1:31p,   ---,   ---,   ---,  ---,   ---, SSW,  7.0, SSW, 12.0, 29.714, 0.00
12/05/22,   1:32p,   ---,   ---,   ---,  ---,   ---, WSW,  7.0, WSW, 10.0, 29.713, 0.00
12/05/22,   1:33p,   ---,   ---,   ---,  ---,   ---, SW ,  4.0, SW ,  9.0, 29.713, 0.00
12/05/22,   1:34p,   ---,   ---,   ---,  ---,   ---, SSW,  6.0, S  , 11.0, 29.711, 0.00
12/05/22,   1:35p,   ---,   ---,   ---,  ---,   ---, SSW,  4.0, S  ,  7.0, 29.711, 0.00
12/05/22,   1:36p,   ---,   ---,   ---,  ---,   ---, SW ,  9.0, SSW, 15.0, 29.711, 0.00
12/05/22,   1:37p,   ---,   ---,   ---,  ---,   ---, SW ,  7.0, WSW, 11.0, 29.711, 0.00
12/05/22,   1:38p,   ---,   ---,   ---,  ---,   ---, SSW,  8.0, SW , 14.0, 29.710, 0.00
12/05/22,   1:39p,   ---,   ---,   ---,  ---,   ---, SSW,  7.0, SW , 16.0, 29.710, 0.00
12/05/22,   1:40p,   ---,   ---,   ---,  ---,   ---, SW ,  9.0, SW , 15.0, 29.710, 0.00
12/05/22,   1:41p,   ---,   ---,   ---,  ---,   ---, SW ,  7.0, WNW, 11.0, 29.709, 0.00
12/05/22,   1:42p,   ---,   ---,   ---,  ---,   ---, SSW,  7.0, SW , 12.0, 29.707, 0.00
12/05/22,   1:43p,   ---,   ---,   ---,  ---,   ---, WSW,  7.0, WSW, 14.0, 29.708, 0.00
12/05/22,   1:44p,   ---,   ---,   ---,  ---,   ---, SW ,  5.0, WSW,  8.0, 29.708, 0.00
12/05/22,   1:45p,   ---,   ---,   ---,  ---,   ---, SW ,  5.0, WSW,  9.0, 29.708, 0.00
12/05/22,   1:46p,   ---,   ---,   ---,  ---,   ---, SW ,  6.0, SW , 11.0, 29.709, 0.00
12/05/22,   1:47p,   ---,   ---,   ---,  ---,   ---, SSW,  6.0, W  , 10.0, 29.706, 0.00
12/05/22,   1:48p,   ---,   ---,   ---,  ---,   ---, SW ,  4.0, SW ,  7.0, 29.705, 0.00
12/05/22,   1:49p,   ---,   ---,   ---,  ---,   ---, WSW,  7.0, WSW, 12.0, 29.706, 0.00
12/05/22,   1:50p,   ---,   ---,   ---,  ---,   ---, SSW,  6.0, SW ,  9.0, 29.705, 0.00
12/05/22,   1:51p,   ---,   ---,   ---,  ---,   ---, SW ,  9.0, SW , 17.0, 29.704, 0.00
12/05/22,   1:52p,   ---,   ---,   ---,  ---,   ---, SW ,  8.0, WSW, 15.0, 29.704, 0.00
12/05/22,   1:53p,   ---,   ---,   ---,  ---,   ---, SW ,  5.0, SW , 13.0, 29.703, 0.00
12/05/22,   1:54p,   ---,   ---,   ---,  ---,   ---, SW ,  5.0, WSW,  9.0, 29.703, 0.00
12/05/22,   1:55p,   ---,   ---,   ---,  ---,   ---, WSW,  7.0, SW , 11.0, 29.702, 0.00
12/05/22,   1:56p,   ---,   ---,   ---,  ---,   ---, SW ,  8.0, S  , 14.0, 29.701, 0.00
12/05/22,   1:57p,   ---,   ---,   ---,  ---,   ---, SW ,  4.0, SW , 10.0, 29.700, 0.00
12/05/22,   1:58p,   ---,   ---,   ---,  ---,   ---, SW ,  6.0, W  , 15.0, 29.700, 0.00
12/05/22,   1:59p,   ---,   ---,   ---,  ---,   ---, SW ,  7.0, SW , 12.0, 29.699, 0.00
12/05/22,   2:00p,   ---,   ---,   ---,  ---,   ---, SW ,  5.0, SW ,  9.0, 29.700, 0.00
12/05/22,   2:01p,   ---,   ---,   ---,  ---,   ---, SSW,  8.0, SSW, 12.0, 29.699, 0.00
12/05/22,   2:02p,   ---,   ---,   ---,  ---,   ---, SSW,  9.0, S  , 15.0, 29.699, 0.00
12/05/22,   2:03p,   ---,   ---,   ---,  ---,   ---, SSW,  9.0, SW , 12.0, 29.699, 0.00
12/05/22,   2:04p,   ---,   ---,   ---,  ---,   ---, SSW, 10.0, S  , 15.0, 29.696, 0.00
12/05/22,   2:05p,   ---,   ---,   ---,  ---,   ---, SSW,  9.0, SSW, 16.0, 29.698, 0.00
12/05/22,   2:06p,   ---,   ---,   ---,  ---,   ---, SSW,  8.0, S  , 14.0, 29.696, 0.00
12/05/22,   2:07p,   ---,   ---,   ---,  ---,   ---, S  , 10.0, SW , 16.0, 29.697, 0.00
12/05/22,   2:08p,   ---,   ---,   ---,  ---,   ---, SSW, 10.0, SSW, 17.0, 29.696, 0.00
12/05/22,   2:09p,   ---,   ---,   ---,  ---,   ---, SW ,  8.0, S  , 14.0, 29.697, 0.00
12/05/22,   2:10p,   ---,   ---,   ---,  ---,   ---, SW ,  7.0, W  , 14.0, 29.699, 0.00
12/05/22,   2:11p,   ---,   ---,   ---,  ---,   ---, SW ,  8.0, WSW, 12.0, 29.698, 0.00
12/05/22,   2:12p,   ---,   ---,   ---,  ---,   ---, SW ,  8.0, SSW, 13.0, 29.699, 0.00
12/05/22,   2:13p,   ---,   ---,   ---,  ---,   ---, SW , 10.0, SSW, 14.0, 29.696, 0.00
12/05/22,   2:14p,   ---,   ---,   ---,  ---,   ---, SSW, 10.0, SSW, 16.0, 29.696, 0.00
12/05/22,   2:15p,   ---,   ---,   ---,  ---,   ---, WSW, 10.0, WSW, 17.0, 29.697, 0.00
12/05/22,   2:16p,   ---,   ---,   ---,  ---,   ---, SSW, 12.0, SSW, 18.0, 29.698, 0.00
12/05/22,   2:17p,   ---,   ---,   ---,  ---,   ---, SW ,  6.0, SW , 12.0, 29.698, 0.00
12/05/22,   2:18p,   ---,   ---,   ---,  ---,   ---, SSW,  5.0, SW , 21.0, 29.700, 0.00
12/05/22,   2:19p,   ---,   ---,   ---,  ---,   ---, SW , 12.0, SW , 16.0, 29.700, 0.00
12/05/22,   2:20p,   ---,   ---,   ---,  ---,   ---, SW ,  6.0, SW , 14.0, 29.698, 0.00
12/05/22,   2:21p,   ---,   ---,   ---,  ---,   ---, SW ,  8.0, SW , 15.0, 29.697, 0.00
12/05/22,   2:22p,   ---,   ---,   ---,  ---,   ---, SW ,  9.0, S  , 17.0, 29.699, 0.00
12/05/22,   2:23p,   ---,   ---,   ---,  ---,   ---, WSW,  9.0, WSW, 14.0, 29.698, 0.00
12/05/22,   2:24p,   ---,   ---,   ---,  ---,   ---, SW ,  6.0, SW , 10.0, 29.698, 0.00
12/05/22,   2:25p,   ---,   ---,   ---,  ---,   ---, SW ,  6.0, SW , 11.0, 29.698, 0.00
12/05/22,   2:26p,   ---,   ---,   ---,  ---,   ---, SW ,  4.0, WSW,  8.0, 29.699, 0.00
12/05/22,   2:27p,   ---,   ---,   ---,  ---,   ---, SW ,  6.0, S  , 10.0, 29.698, 0.00
12/05/22,   2:28p,   ---,   ---,   ---,  ---,   ---, SW ,  8.0, SSW, 12.0, 29.698, 0.00
12/05/22,   2:29p,   ---,   ---,   ---,  ---,   ---, SW ,  9.0, W  , 16.0, 29.697, 0.00
12/05/22,   2:30p,   ---,   ---,   ---,  ---,   ---, WSW,  7.0, SW , 11.0, 29.698, 0.00
12/05/22,   2:31p,   ---,   ---,   ---,  ---,   ---, SW ,  4.0, WSW,  8.0, 29.698, 0.00
12/05/22,   2:32p,   ---,   ---,   ---,  ---,   ---, SW ,  6.0, SW , 11.0, 29.697, 0.00
12/05/22,   2:33p,   ---,   ---,   ---,  ---,   ---, SW ,  7.0, SW , 10.0, 29.697, 0.00
12/05/22,   2:34p,   ---,   ---,   ---,  ---,   ---, SSW,  7.0, SW , 10.0, 29.695, 0.00
12/05/22,   2:35p,   ---,   ---,   ---,  ---,   ---, SW ,  8.0, SW , 15.0, 29.695, 0.00
12/05/22,   2:36p,   ---,   ---,   ---,  ---,   ---, SW , 10.0, SW , 14.0, 29.693, 0.00
12/05/22,   2:37p,   ---,   ---,   ---,  ---,   ---, SW ,  7.0, W  , 12.0, 29.692, 0.00
12/05/22,   2:38p,   ---,   ---,   ---,  ---,   ---, SSW, 11.0, SSW, 20.0, 29.693, 0.00
12/05/22,   2:39p,   ---,   ---,   ---,  ---,   ---, SSW,  8.0, W  , 13.0, 29.691, 0.00
12/05/22,   2:40p,   ---,   ---,   ---,  ---,   ---, SSW,  9.0, SSW, 14.0, 29.690, 0.00
12/05/22,   2:41p,   ---,   ---,   ---,  ---,   ---, SW , 10.0, SSE, 16.0, 29.692, 0.00
12/05/22,   2:42p,   ---,   ---,   ---,  ---,   ---, SSW,  9.0, WSW, 17.0, 29.691, 0.00
12/05/22,   2:43p,   ---,   ---,   ---,  ---,   ---, SSW,  8.0, SSW, 12.0, 29.690, 0.00
12/05/22,   2:44p,   ---,   ---,   ---,  ---,   ---, SSW, 12.0, S  , 17.0, 29.688, 0.00
12/05/22,   2:45p,   ---,   ---,   ---,  ---,   ---, SSW,  9.0, SSW, 13.0, 29.689, 0.00
12/05/22,   2:46p,   ---,   ---,   ---,  ---,   ---, S  ,  6.0, SSE, 10.0, 29.688, 0.00
12/05/22,   2:47p,   ---,   ---,   ---,  ---,   ---, SW ,  4.0, SSW, 11.0, 29.688, 0.00
12/05/22,   2:48p,   ---,   ---,   ---,  ---,   ---, SSW,  8.0, SSE, 17.0, 29.687, 0.00
12/05/22,   2:49p,   ---,   ---,   ---,  ---,   ---, SSW,  6.0, SW , 10.0, 29.686, 0.00
12/05/22,   2:50p,   ---,   ---,   ---,  ---,   ---, SSW,  4.0, S  ,  6.0, 29.686, 0.00
12/05/22,   2:51p,   ---,   ---,   ---,  ---,   ---, SSW, 10.0, S  , 18.0, 29.685, 0.00
12/05/22,   2:52p,   ---,   ---,   ---,  ---,   ---, SSW,  9.0, SW , 14.0, 29.685, 0.00
12/05/22,   2:53p,   ---,   ---,   ---,  ---,   ---, SSW, 11.0, WSW, 15.0, 29.686, 0.00
12/05/22,   2:54p,   ---,   ---,   ---,  ---,   ---, WSW,  7.0, WSW,  9.0, 29.684, 0.00
12/05/22,   2:55p,   ---,   ---,   ---,  ---,   ---, SW ,  5.0, SSW, 12.0, 29.686, 0.00
12/05/22,   2:56p,   ---,   ---,   ---,  ---,   ---, SSW,  7.0, SSW, 12.0, 29.686, 0.00
12/05/22,   2:57p,   ---,   ---,   ---,  ---,   ---, SSW,  9.0, SSW, 12.0, 29.686, 0.00
12/05/22,   2:58p,   ---,   ---,   ---,  ---,   ---, SW , 11.0, SW , 16.0, 29.687, 0.00
12/05/22,   2:59p,   ---,   ---,   ---,  ---,   ---, SW ,  9.0, SW , 15.0, 29.688, 0.00
12/05/22,   3:00p,   ---,   ---,   ---,  ---,   ---, SW ,  6.0, SW ,  9.0, 29.687, 0.00
12/05/22,   3:01p,   ---,   ---,   ---,  ---,   ---, SW ,  8.0, SW , 15.0, 29.688, 0.00
12/05/22,   3:02p,   ---,   ---,   ---,  ---,   ---, SW ,  9.0, WSW, 14.0, 29.688, 0.00
12/05/22,   3:03p,   ---,   ---,   ---,  ---,   ---, SSW,  6.0, S  , 12.0, 29.689, 0.00
12/05/22,   3:04p,   ---,   ---,   ---,  ---,   ---, SW ,  9.0, SW , 14.0, 29.686, 0.00
12/05/22,   3:05p,   ---,   ---,   ---,  ---,   ---, SSW, 10.0, SW , 18.0, 29.686, 0.00
12/05/22,   3:06p,   ---,   ---,   ---,  ---,   ---, SW , 11.0, SW , 14.0, 29.687, 0.00
12/05/22,   3:07p,   ---,   ---,   ---,  ---,   ---, SSW, 12.0, SSE, 19.0, 29.685, 0.00
12/05/22,   3:08p,   ---,   ---,   ---,  ---,   ---, SSW, 10.0, WSW, 16.0, 29.684, 0.00
12/05/22,   3:09p,   ---,   ---,   ---,  ---,   ---, SSW,  7.0, WSW, 11.0, 29.684, 0.00
12/05/22,   3:10p,   ---,   ---,   ---,  ---,   ---, SSW,  6.0, SSW, 10.0, 29.684, 0.00
12/05/22,   3:11p,   ---,   ---,   ---,  ---,   ---, S  ,  6.0, S  , 10.0, 29.686, 0.00
12/05/22,   3:12p,   ---,   ---,   ---,  ---,   ---, SSW,  9.0, SW , 12.0, 29.685, 0.00
12/05/22,   3:13p,   ---,   ---,   ---,  ---,   ---, SSW, 11.0, SW , 14.0, 29.683, 0.00
12/05/22,   3:14p,   ---,   ---,   ---,  ---,   ---, SW , 10.0, S  , 19.0, 29.680, 0.00
12/05/22,   3:15p,   ---,   ---,   ---,  ---,   ---, SSW,  9.0, SSW, 15.0, 29.683, 0.00
12/05/22,   3:16p,   ---,   ---,   ---,  ---,   ---, SSW,  7.0, SSW, 13.0, 29.682, 0.00
12/05/22,   3:17p,   ---,   ---,   ---,  ---,   ---, SSW,  7.0, S  , 17.0, 29.682, 0.00
12/05/22,   3:18p,   ---,   ---,   ---,  ---,   ---, SSW,  8.0, SSW, 13.0, 29.683, 0.00
12/05/22,   3:19p,   ---,   ---,   ---,  ---,   ---, SSW,  5.0, WSW,  8.0, 29.684, 0.00
12/05/22,   3:20p,   ---,   ---,   ---,  51,   ---, SSW, 10.0, WSW, 17.0, 29.683, 0.00
12/05/22,   3:21p,  81.7,  81.7,  81.7,  50,  61.2, S  , 10.0, SW , 14.0, 29.681, 0.00
12/05/22,   3:22p,  81.8,  81.8,  81.7,  50,  61.3, SW ,  8.0, SW , 13.0, 29.681, 0.00
12/05/22,   3:23p,  81.9,  81.9,  81.8,  50,  61.4, SW ,  6.0, SW , 12.0, 29.681, 0.00
12/05/22,   3:24p,  81.9,  82.0,  81.9,  50,  61.4, S  ,  8.0, SW , 14.0, 29.682, 0.00
12/05/22,   3:25p,  81.8,  81.9,  81.8,  50,  61.3, SW ,  9.0, SSW, 13.0, 29.680, 0.00
12/05/22,   3:26p,  81.7,  81.8,  81.7,  51,  61.8, SSW,  7.0, SW , 12.0, 29.679, 0.00
12/05/22,   3:27p,  81.8,  81.8,  81.8,  51,  61.9, SW ,  5.0, SW , 10.0, 29.681, 0.00
12/05/22,   3:28p,  81.8,  81.8,  81.8,  50,  61.3, SW ,  8.0, SSW, 13.0, 29.679, 0.00
12/05/22,   3:29p,  81.5,  81.6,  81.5,  50,  61.1, SSW,  4.0, WNW,  5.0, 29.678, 0.00
12/05/22,   3:30p,  81.4,  81.4,  81.4,  51,  61.5, SW ,  7.0, SW , 12.0, 29.680, 0.00
12/05/22,   3:31p,  80.8,  81.0,  80.8,  51,  61.0, SW ,  4.0, WSW, 10.0, 29.680, 0.00